Location: Unspecified
(34.4500°N, 0.0000°E)
Time: 18:25:23
(UTC+00:00)

ISS - Visible Passes

Search period start: 15 December 2019 00:00
Search period end: 25 December 2019 00:00
Orbit: 411 x 421 km, 51.6° (Epoch: 16 December)

Date Brightness Start Highest point End Pass type
(mag) Time Alt. Az. Time Alt. Az. Time Alt. Az.
20 Dec -1.3 06:04:02 10° S 06:06:50 26° SE 06:09:38 10° ENE visible
21 Dec -0.6 05:16:43 10° SSE 05:18:27 14° SE 05:20:12 10° E visible
22 Dec -3.9 06:03:00 10° SW 06:06:18 86° NW 06:09:38 10° NE visible
23 Dec -2.8 05:16:49 33° S 05:17:48 46° SE 05:20:59 10° ENE visible
24 Dec -0.5 04:31:35 12° E 04:31:35 12° E 04:32:02 10° ENE visible
24 Dec -2.7 06:04:34 20° WNW 06:05:57 27° NW 06:08:51 10° NNE visible
